When you browse on this site, cookies collect data to enhance your experience and personalize the content and advertising you see.
Visit our Privacy Policy to learn more. By continuing to use the site, you agree to this use of cookies and data.
  • In Hungary
  • List of Countries
  • For 7 days
  • Water Temperature
  • Weather Map
  • News
  • Weather Widgets
  • user-avatar
    Login

    Hourly Weather Ampara

    Today, 9 December, Monday

    Time Temperature Precipitation Wind Pressure Humidity
    00:00 +26°C° 0.3 mm 2 mps 754 mmHg 92%
    01:00 +26°C° 0.3 mm 2 mps 753 mmHg 92%
    02:00 +25°C° 0.3 mm 2 mps 753 mmHg 93%
    03:00 +25°C° 0.4 mm 2 mps 753 mmHg 93%
    04:00 +25°C° 0.4 mm 2 mps 753 mmHg 93%
    05:00 +25°C° 0.4 mm 2 mps 754 mmHg 93%
    06:00 +26°C° 0.7 mm 2 mps 754 mmHg 91%
    07:00 +27°C° 0.7 mm 3 mps 755 mmHg 89%
    08:00 +28°C° 0.7 mm 3 mps 755 mmHg 86%
    09:00 +28°C° 1.6 mm 3 mps 755 mmHg 85%
    10:00 +29°C° 1.6 mm 3 mps 754 mmHg 83%
    11:00 +29°C° 1.6 mm 4 mps 754 mmHg 82%
    12:00 +29°C° 2.5 mm 4 mps 753 mmHg 83%
    13:00 +29°C° 2.5 mm 4 mps 753 mmHg 85%
    14:00 +28°C° 2.5 mm 4 mps 752 mmHg 86%
    15:00 +28°C° 1.2 mm 3 mps 752 mmHg 88%
    16:00 +27°C° 1.2 mm 2 mps 752 mmHg 91%
    17:00 +26°C° 1.2 mm 1 mps 752 mmHg 93%
    18:00 +26°C° 0.1 mm 1 mps 753 mmHg 93%
    19:00 +26°C° 0.1 mm 1 mps 754 mmHg 93%
    20:00 +26°C° 0.1 mm 1 mps 754 mmHg 92%
    21:00 +26°C° 0 mm 1 mps 754 mmHg 93%
    22:00 +26°C° 0 mm 1 mps 754 mmHg 93%
    23:00 +26°C° 0 mm 1 mps 754 mmHg 93%

    Tomorrow, 10 December, Tuesday

    Time Temperature Precipitation Wind Pressure Humidity
    00:00 +26°C° 0.1 mm 1 mps 753 mmHg 93%
    01:00 +25°C° 0.1 mm 1 mps 753 mmHg 93%
    02:00 +25°C° 0.1 mm 1 mps 752 mmHg 93%
    03:00 +25°C° 0.1 mm 1 mps 752 mmHg 93%
    04:00 +25°C° 0.1 mm 1 mps 753 mmHg 93%
    05:00 +25°C° 0.1 mm 1 mps 753 mmHg 93%
    06:00 +26°C° 0.1 mm 1 mps 753 mmHg 90%
    07:00 +27°C° 0.1 mm 1 mps 754 mmHg 86%
    08:00 +28°C° 0.1 mm 1 mps 754 mmHg 83%
    09:00 +29°C° 0.8 mm 2 mps 754 mmHg 81%
    10:00 +30°C° 0.8 mm 3 mps 753 mmHg 79%
    11:00 +30°C° 0.8 mm 3 mps 753 mmHg 78%
    12:00 +30°C° 1.9 mm 3 mps 752 mmHg 79%
    13:00 +30°C° 1.9 mm 3 mps 752 mmHg 80%
    14:00 +29°C° 1.9 mm 3 mps 751 mmHg 82%
    15:00 +29°C° 1.2 mm 3 mps 751 mmHg 84%
    16:00 +28°C° 1.2 mm 2 mps 751 mmHg 87%
    17:00 +27°C° 1.2 mm 2 mps 751 mmHg 89%
    18:00 +27°C° 0.7 mm 2 mps 752 mmHg 90%
    19:00 +27°C° 0.7 mm 2 mps 752 mmHg 91%
    20:00 +26°C° 0.7 mm 1 mps 753 mmHg 92%
    21:00 +26°C° 0.3 mm 1 mps 753 mmHg 92%
    22:00 +26°C° 0.3 mm 1 mps 753 mmHg 93%
    23:00 +26°C° 0.3 mm 1 mps 753 mmHg 93%

    Day after tomorrow, 11 December, Wednesday

    Time Temperature Precipitation Wind Pressure Humidity
    00:00 +25°C° 0.1 mm 1 mps 752 mmHg 93%
    01:00 +25°C° 0.1 mm 1 mps 752 mmHg 93%
    02:00 +25°C° 0.1 mm 1 mps 751 mmHg 93%
    03:00 +25°C° 0.2 mm 1 mps 752 mmHg 93%
    04:00 +25°C° 0.2 mm 1 mps 752 mmHg 93%
    05:00 +25°C° 0.2 mm 1 mps 752 mmHg 93%
    06:00 +26°C° 0.1 mm 2 mps 753 mmHg 90%
    07:00 +27°C° 0.1 mm 2 mps 753 mmHg 86%
    08:00 +28°C° 0.1 mm 2 mps 754 mmHg 82%
    09:00 +29°C° 0.4 mm 2 mps 753 mmHg 80%
    10:00 +30°C° 0.4 mm 3 mps 753 mmHg 77%
    11:00 +30°C° 0.4 mm 3 mps 753 mmHg 74%
    12:00 +30°C° 0.6 mm 3 mps 752 mmHg 74%
    13:00 +30°C° 0.6 mm 3 mps 751 mmHg 74%
    14:00 +30°C° 0.6 mm 3 mps 751 mmHg 75%
    15:00 +29°C° 0.6 mm 3 mps 751 mmHg 79%
    16:00 +28°C° 0.6 mm 2 mps 751 mmHg 83%
    17:00 +27°C° 0.6 mm 2 mps 751 mmHg 87%
    18:00 +27°C° 0.7 mm 2 mps 752 mmHg 88%
    19:00 +27°C° 0.7 mm 1 mps 752 mmHg 89%
    20:00 +26°C° 0.7 mm 1 mps 753 mmHg 90%
    21:00 +26°C° 0.2 mm 1 mps 753 mmHg 90%
    22:00 +26°C° 0.2 mm 1 mps 752 mmHg 91%
    23:00 +25°C° 0.2 mm 1 mps 752 mmHg 91%

    12 December, Thursday

    Time Temperature Precipitation Wind Pressure Humidity
    00:00 +25°C° 0 mm 1 mps 752 mmHg 91%
    01:00 +25°C° 0 mm 1 mps 752 mmHg 92%
    02:00 +25°C° 0 mm 2 mps 751 mmHg 92%
    03:00 +25°C° 0 mm 1 mps 751 mmHg 92%
    04:00 +25°C° 0 mm 1 mps 751 mmHg 92%
    05:00 +24°C° 0 mm 1 mps 752 mmHg 92%
    06:00 +26°C° 0 mm 1 mps 752 mmHg 89%
    07:00 +27°C° 0 mm 1 mps 753 mmHg 85%
    08:00 +28°C° 0 mm 2 mps 753 mmHg 81%
    09:00 +29°C° 0 mm 2 mps 753 mmHg 75%
    10:00 +31°C° 0 mm 2 mps 753 mmHg 68%
    11:00 +32°C° 0 mm 2 mps 753 mmHg 62%
    12:00 +32°C° 0.1 mm 2 mps 752 mmHg 63%
    13:00 +31°C° 0.1 mm 3 mps 751 mmHg 65%
    14:00 +31°C° 0.1 mm 3 mps 750 mmHg 67%
    15:00 +30°C° 0.1 mm 3 mps 751 mmHg 72%
    16:00 +29°C° 0.1 mm 2 mps 751 mmHg 78%
    17:00 +28°C° 0.1 mm 2 mps 751 mmHg 84%
    18:00 +27°C° 0 mm 2 mps 752 mmHg 86%
    19:00 +27°C° 0 mm 1 mps 752 mmHg 88%
    20:00 +26°C° 0 mm 1 mps 753 mmHg 90%
    21:00 +26°C° 0 mm 1 mps 753 mmHg 90%
    22:00 +26°C° 0 mm 1 mps 752 mmHg 91%
    23:00 +26°C° 0 mm 1 mps 752 mmHg 91%

    13 December, Friday

    Time Temperature Precipitation Wind Pressure Humidity
    00:00 +25°C° 0 mm 1 mps 752 mmHg 91%
    01:00 +25°C° 0 mm 1 mps 751 mmHg 91%
    02:00 +25°C° 0 mm 1 mps 751 mmHg 92%
    03:00 +25°C° 0 mm 1 mps 751 mmHg 92%
    04:00 +25°C° 0 mm 1 mps 751 mmHg 92%
    05:00 +25°C° 0 mm 1 mps 752 mmHg 92%
    06:00 +26°C° 0.1 mm 1 mps 752 mmHg 88%
    07:00 +27°C° 0.1 mm 1 mps 753 mmHg 85%
    08:00 +29°C° 0.1 mm 2 mps 753 mmHg 81%
    09:00 +29°C° 1 mm 2 mps 753 mmHg 80%
    10:00 +29°C° 1 mm 3 mps 753 mmHg 80%
    11:00 +30°C° 1 mm 4 mps 753 mmHg 79%
    12:00 +30°C° 2.5 mm 4 mps 752 mmHg 80%
    13:00 +30°C° 2.5 mm 4 mps 751 mmHg 80%
    14:00 +29°C° 2.5 mm 4 mps 751 mmHg 81%
    15:00 +29°C° 3.3 mm 4 mps 751 mmHg 84%
    16:00 +28°C° 3.3 mm 4 mps 751 mmHg 87%
    17:00 +27°C° 3.3 mm 4 mps 751 mmHg 91%
    18:00 +27°C° 3.3 mm 3 mps 752 mmHg 91%
    19:00 +27°C° 3.3 mm 3 mps 752 mmHg 92%
    20:00 +27°C° 3.3 mm 2 mps 753 mmHg 92%
    21:00 +27°C° 1.9 mm 2 mps 753 mmHg 92%
    22:00 +26°C° 1.9 mm 2 mps 753 mmHg 92%
    23:00 +26°C° 1.9 mm 1 mps 753 mmHg 91%

    14 December, Saturday

    Time Temperature Precipitation Wind Pressure Humidity
    00:00 +26°C° 0.9 mm 1 mps 753 mmHg 91%
    01:00 +26°C° 0.9 mm 1 mps 752 mmHg 91%
    02:00 +26°C° 0.9 mm 1 mps 752 mmHg 91%
    03:00 +26°C° 0.8 mm 1 mps 752 mmHg 91%
    04:00 +26°C° 0.8 mm 1 mps 752 mmHg 91%
    05:00 +26°C° 0.8 mm 1 mps 752 mmHg 91%
    06:00 +26°C° 1.7 mm 1 mps 753 mmHg 92%
    07:00 +26°C° 1.7 mm 2 mps 753 mmHg 92%
    08:00 +26°C° 1.7 mm 2 mps 754 mmHg 93%
    09:00 +27°C° 1.6 mm 2 mps 754 mmHg 92%
    10:00 +27°C° 1.6 mm 2 mps 754 mmHg 91%
    11:00 +27°C° 1.6 mm 2 mps 754 mmHg 90%
    12:00 +27°C° 2.2 mm 2 mps 753 mmHg 91%
    13:00 +27°C° 2.2 mm 2 mps 753 mmHg 91%
    14:00 +26°C° 2.2 mm 1 mps 752 mmHg 92%
    15:00 +27°C° 1.3 mm 1 mps 752 mmHg 92%
    16:00 +27°C° 1.3 mm 1 mps 752 mmHg 91%
    17:00 +25°C° 1.3 mm 0 mps 753 mmHg 90%
    18:00 +24°C° 1 mm 0 mps 753 mmHg 91%
    19:00 +24°C° 1 mm 0 mps 754 mmHg 91%
    20:00 +24°C° 1 mm 0 mps 754 mmHg 91%
    21:00 +24°C° 0.4 mm 0 mps 754 mmHg 91%
    22:00 +26°C° 0.4 mm 1 mps 754 mmHg 91%
    23:00 +26°C° 0.4 mm 1 mps 754 mmHg 91%
    Show more